Myrtle Beach, SC

6:05 AM EDT on June 25, 2017 (GMT -0400)
Myrtle Beach International

Weather History for KMYR - September, 2012

Change the Weather History Date:

Thursday, September 13, 2012

  Actual Average Record
Temperature  
Mean Temperature 72 °F -  
Max Temperature 82 °F 80 °F 89 °F (2000)
Min Temperature 62 °F 65 °F 58 °F (1992)
Cooling Degree Days 7    
Growing Degree Days 22 (Base 50)    
Moisture  
Dew Point 60 °F    
Average Humidity 69    
Maximum Humidity 78    
Minimum Humidity 51    
Precipitation  
Precipitation 0.00 in - - ()
Sea Level Pressure  
Sea Level Pressure 30.24 in    
Wind  
Wind Speed 9 mph (NNE)    
Max Wind Speed 16 mph    
Max Gust Speed 18 mph    
Visibility 10 miles    
Events      
Averages and records for this station are not official NWS values.
T = Trace of Precipitation, MM = Missing Value Source: NWS Daily Summary

Daily Weather History Graph

Daily Weather History Graph

Search for Another Location

Airport or City:

Trip Planner

Search our weather history database for the weather conditions in past years. The results will help you decide how hot, cold, wet, or windy it might be!

Date:

Astronomy

Sep. 13, 2012 Rise Set
Actual Time 6:58 AM EDT 7:24 PM EDT
Civil Twilight 6:33 AM EDT 7:49 PM EDT
Nautical Twilight 6:03 AM EDT 8:18 PM EDT
Astronomical Twilight 5:33 AM EDT 8:48 PM EDT
Moon 4:21 AM EDT (9/13) 5:42 PM EDT (9/13)
Length of Visible Light 13h 16m
Length of Day
12h 26m
Waning Crescent, 7% of the Moon is Illuminated
Sep 13
Waning Crescent
Sep 15
New
Sep 22
First Quarter
Sep 29
Full
Oct 8
Last Quarter

Hourly Weather History & Observations

Time (EDT) Temp. Heat Index Dew Point Humidity Pressure Visibility Wind Dir Wind Speed Gust Speed Precip Events Conditions
12:15 AM 69.8 °F - 60.8 °F 73% 30.26 in 10.0 mi NNE 8.1 mph - N/A   Scattered Clouds
12:35 AM 68.0 °F - 60.8 °F 78% 30.26 in 10.0 mi NNE 6.9 mph - N/A   Mostly Cloudy
12:55 AM 68.0 °F - 60.8 °F 78% 30.26 in 10.0 mi NNE 6.9 mph - N/A   Mostly Cloudy
1:15 AM 68.0 °F - 60.8 °F 78% 30.26 in 10.0 mi NNE 9.2 mph - N/A   Mostly Cloudy
1:35 AM 68.0 °F - 60.8 °F 78% 30.25 in 10.0 mi NNE 9.2 mph - N/A   Clear
1:55 AM 68.0 °F - 59.0 °F 73% 30.25 in 10.0 mi NNE 8.1 mph - N/A   Clear
2:15 AM 66.2 °F - 59.0 °F 78% 30.25 in 10.0 mi NNE 8.1 mph - N/A   Clear
2:35 AM 66.2 °F - 59.0 °F 78% 30.25 in 10.0 mi NNE 8.1 mph - N/A   Clear
2:55 AM 66.2 °F - 57.2 °F 73% 30.25 in 10.0 mi NNE 9.2 mph - N/A   Clear
3:15 AM 66.2 °F - 57.2 °F 73% 30.24 in 10.0 mi North 9.2 mph - N/A   Clear
3:35 AM 66.2 °F - 57.2 °F 73% 30.24 in 10.0 mi NNE 9.2 mph - N/A   Clear
3:55 AM 66.2 °F - 57.2 °F 73% 30.24 in - NNE 9.2 mph - N/A   Clear
4:15 AM 64.4 °F - 57.2 °F 77% 30.23 in 10.0 mi NNE 10.4 mph - N/A   Clear
4:35 AM 66.2 °F - 57.2 °F 73% 30.23 in - NNE 10.4 mph - N/A   Clear
4:55 AM 64.4 °F - 57.2 °F 77% 30.24 in - North 10.4 mph - N/A   Clear
5:15 AM 64.4 °F - 57.2 °F 77% 30.24 in - North 11.5 mph - N/A   Clear
5:35 AM 64.4 °F - 55.4 °F 73% 30.25 in - North 11.5 mph - N/A   Clear
5:55 AM 64.4 °F - 55.4 °F 73% 30.25 in - North 12.7 mph - N/A   Clear
6:50 AM 62.6 °F - 55.4 °F 77% 30.26 in 10.0 mi NNE 11.5 mph - N/A   Clear
7:45 AM 64.4 °F - 55.4 °F 73% 30.28 in 10.0 mi NNE 11.5 mph - N/A   Clear
8:45 AM 68.0 °F - 57.2 °F 68% 30.29 in 10.0 mi NNE 11.5 mph - N/A   Clear
9:48 AM 73.4 °F - 59.0 °F 61% 30.29 in 10.0 mi NNE 11.5 mph - N/A   Clear
10:50 AM 77.0 °F - 60.8 °F 57% 30.29 in 10.0 mi North 13.8 mph - N/A   Clear
11:45 AM 78.8 °F - 60.8 °F 54% 30.29 in 10.0 mi NE 13.8 mph - N/A   Partly Cloudy
12:45 PM 80.6 °F 81.8 °F 62.6 °F 54% 30.27 in 10.0 mi NE 15.0 mph - N/A   Scattered Clouds
2:45 PM 82.4 °F 83.4 °F 62.6 °F 51% 30.23 in 10.0 mi East 16.1 mph - N/A   Scattered Clouds
3:45 PM 80.6 °F 81.8 °F 62.6 °F 54% 30.22 in 10.0 mi East 16.1 mph - N/A   Scattered Clouds
4:45 PM 80.6 °F 81.8 °F 62.6 °F 54% 30.21 in 10.0 mi East 13.8 mph 18.4 mph N/A   Scattered Clouds
5:45 PM 80.6 °F 81.8 °F 62.6 °F 54% 30.20 in 10.0 mi East 11.5 mph - N/A   Scattered Clouds
6:45 PM 78.8 °F - 62.6 °F 57% 30.20 in 10.0 mi East 11.5 mph - N/A   Scattered Clouds
7:45 PM 77.0 °F - 62.6 °F 61% 30.21 in 10.0 mi East 9.2 mph - N/A   Partly Cloudy
8:45 PM 77.0 °F - 62.6 °F 61% 30.21 in 10.0 mi East 9.2 mph - N/A   Clear
9:45 PM 80.6 °F 81.8 °F 62.6 °F 54% 30.22 in 10.0 mi East 9.2 mph - N/A   Clear
10:55 PM 69.8 °F - 62.6 °F 78% 30.22 in - NNE 5.8 mph - N/A   Clear
11:15 PM 69.8 °F - 60.8 °F 73% 30.22 in - NNE 4.6 mph - N/A   Clear
11:35 PM 69.8 °F - 60.8 °F 73% 30.22 in 10.0 mi North 4.6 mph - N/A   Clear
11:55 PM 69.8 °F - 60.8 °F 73% 30.22 in - North 5.8 mph - N/A   Clear